Wind_Speed
40 41 41 42 43 44 45 46 47 46 45 44 44 44 43 41 40 40 41 42 41 40 39 40 39 37 37 38 39 41 43 45 47 48 49 49 50 51 51 49 49 49 48 49 51 53 56 58 59 60 61 61 61 61 62 65 66 67 67 66 67 67 66 65 65 64 64 65 67 71 75 80 84 88 91 92 90 85 82 82 81 79 77 73 69
40 41 42 42 43 44 44 45 46 47 46 46 45 46 46 45 43 41 40 41 42 41 41 41 40 39 39 41 42 44 45 47 48 49 49 50 50 51 50 49 49 49 49 51 54 56 58 59 60 60 60 60 60 62 64 66 66 66 66 65 65 64 63 63 64 64 65 66 68 72 77 82 85 89 92 91 87 82 80 80 80 79 77 73 70
39 41 42 43 43 44 45 45 45 45 46 47 47 48 48 48 46 44 41 42 43 43 43 42 41 41 42 43 44 46 46 46 47 47 48 48 49 48 49 49 50 51 52 54 57 58 58 59 60 60 59 60 62 64 65 65 65 64 64 63 62 62 63 64 64 65 66 67 71 75 79 83 87 90 91 88 83 80 78 78 78 78 74 72 72
38 40 42 43 44 44 44 44 44 43 45 46 48 48 48 48 47 44 42 42 44 45 44 43 43 44 44 45 45 45 44 45 45 46 46 47 47 48 49 51 52 53 55 57 58 58 58 58 58 58 59 61 63 64 64 63 63 62 61 61 61 62 65 66 66 67 68 70 74 77 80 84 87 89 89 85 80 78 77 76 76 74 72 72 74
36 38 40 42 44 45 44 43 42 42 43 44 46 47 48 48 47 44 42 42 44 45 45 44 44 44 44 44 43 43 44 45 46 46 46 47 48 50 51 53 54 55 56 57 57 56 56 57 58 59 61 62 62 62 62 61 60 60 59 60 62 65 68 68 68 69 70 73 76 79 82 86 88 88 85 80 78 78 76 74 72 70 70 72 74
34 36 38 41 44 45 45 43 41 41 42 43 44 46 47 47 46 44 42 42 44 45 44 43 43 43 43 43 43 45 47 48 49 50 51 53 54 55 55 56 56 57 57 56 55 55 56 58 59 60 60 60 60 60 59 58 58 58 59 61 65 68 70 70 69 70 72 74 77 81 84 86 87 85 80 76 75 75 75 73 71 69 70 72 73
33 35 36 38 40 42 43 43 41 41 41 42 43 44 44 44 43 43 43 43 43 43 43 42 41 41 42 43 45 47 49 51 52 54 55 56 56 56 56 56 56 56 56 55 56 56 57 58 59 59 58 58 58 57 57 56 57 59 61 63 66 69 69 69 70 71 73 76 80 83 85 85 84 81 76 74 74 73 72 72 71 70 70 71 72
32 33 34 35 36 38 39 39 39 39 40 41 41 41 42 42 42 42 43 44 44 43 43 42 41 41 43 45 47 48 50 51 52 53 54 54 55 55 55 55 56 56 55 55 56 56 57 58 57 57 56 55 55 55 55 56 58 60 62 65 68 69 69 69 70 73 76 79 82 84 84 84 82 77 74 74 73 71 71 71 71 71 71 71 71
32 32 32 32 33 34 35 35 36 37 38 39 39 39 39 40 41 42 44 45 45 45 45 44 44 44 45 47 49 51 52 53 54 55 55 55 55 55 56 56 56 56 55 56 56 56 57 56 54 53 52 52 53 53 55 57 59 61 63 66 68 68 68 69 72 75 78 80 81 82 82 81 78 74 73 72 71 70 70 70 70 71 71 71 70
31 31 30 30 31 32 33 34 35 35 36 37 37 37 38 39 40 42 44 46 47 47 47 47 47 48 49 51 52 54 55 56 57 57 57 56 56 56 56 56 56 55 55 55 56 56 55 52 50 50 50 51 52 53 55 57 60 62 65 67 68 67 69 71 74 77 78 79 80 80 80 78 74 72 71 70 68 68 69 69 69 70 71 70 69
29 30 29 29 30 32 33 34 34 34 35 35 35 36 37 38 40 42 43 46 48 49 49 49 49 50 52 53 55 57 57 58 58 58 57 57 56 56 56 56 55 54 54 55 55 53 50 48 48 49 50 51 52 54 56 58 61 65 67 67 67 68 71 74 75 76 77 78 79 78 77 74 71 69 68 66 66 67 67 68 68 69 70 69 68
28 29 29 29 30 31 32 33 34 35 35 35 35 36 36 38 40 41 43 45 47 49 51 51 52 53 54 56 58 59 59 59 59 58 57 56 56 56 56 55 54 54 54 53 51 48 46 47 48 49 50 51 53 54 56 60 64 67 67 67 68 70 72 73 74 75 76 78 77 76 75 71 68 66 65 64 64 66 67 67 68 69 69 68 68
26 28 29 30 30 31 31 33 33 34 35 35 36 36 37 38 39 41 43 44 46 48 50 52 52 54 55 56 58 58 58 57 57 56 55 55 55 54 54 53 53 52 51 49 47 46 47 48 49 50 51 52 54 55 59 63 66 67 67 67 69 70 71 72 73 74 76 77 76 75 73 68 66 65 63 61 62 64 65 66 67 67 68 67 68
25 27 28 29 30 30 30 31 32 33 34 35 36 36 37 38 39 40 42 43 45 46 47 48 49 50 51 52 53 53 53 53 52 52 52 52 51 51 51 51 50 49 47 46 47 48 49 50 50 51 52 53 55 59 63 66 65 65 66 67 68 68 70 71 72 73 75 75 74 73 70 66 64 63 60 59 60 61 63 64 65 65 66 66 68
23 24 26 28 29 29 29 30 31 31 32 33 34 34 35 36 37 38 39 40 41 42 43 43 43 44 45 46 48 48 47 48 49 48 48 47 47 47 47 47 47 46 45 47 49 50 51 51 51 52 54 56 59 64 67 66 64 65 67 67 67 68 69 70 71 73 74 73 72 71 66 64 63 61 59 59 59 60 62 63 63 64 64 65 68
23 22 23 25 26 27 28 29 30 31 31 31 32 32 32 34 35 36 37 37 38 39 39 39 40 41 42 44 45 44 44 45 46 45 44 44 44 45 45 45 45 46 47 49 51 51 52 51 52 54 57 60 64 67 67 65 65 67 67 67 67 68 69 70 71 72 72 70 70 67 63 62 62 59 57 58 59 60 62 63 63 63 63 64 67
24 23 23 24 26 27 27 28 29 31 32 32 33 33 33 34 34 35 35 36 36 37 38 38 39 39 40 41 41 40 41 43 44 43 43 44 44 44 45 46 46 48 49 51 52 52 51 51 54 58 60 63 66 68 66 65 67 67 66 67 67 68 69 70 71 71 70 69 67 64 62 62 60 57 56 57 58 59 61 63 64 63 62 63 65
25 24 24 24 26 28 28 29 31 32 34 35 34 34 33 33 33 34 34 35 35 37 37 37 37 36 37 38 38 38 41 44 45 44 44 44 45 46 47 48 49 50 51 52 52 51 51 54 58 61 63 65 67 66 65 66 68 67 67 68 68 68 69 70 70 70 69 68 66 64 62 61 58 56 56 56 57 59 60 62 64 65 64 64 64
26 25 25 24 25 27 28 29 32 33 34 33 32 31 30 30 31 31 31 31 32 34 34 34 34 34 36 38 39 39 42 45 47 47 46 47 48 49 51 51 52 52 52 52 52 53 56 59 61 62 64 66 66 65 66 68 68 67 68 69 68 69 69 70 70 69 68 67 65 63 62 60 57 56 56 56 57 59 60 62 64 66 66 65 65
27 27 26 25 25 27 28 30 33 34 32 30 29 28 28 28 28 28 29 30 32 33 33 34 35 36 37 39 41 44 47 49 50 51 51 52 53 54 55 55 55 54 54 54 56 58 61 62 62 63 66 67 66 66 68 68 68 68 69 69 69 69 69 69 69 68 67 66 64 63 63 61 58 58 57 58 59 61 62 64 65 67 68 68 67
29 29 28 27 27 28 28 29 31 31 30 29 28 27 27 29 30 30 32 34 35 35 35 37 38 38 38 40 44 48 51 52 52 53 54 55 56 57 58 58 58 57 57 59 61 63 64 64 65 66 67 67 66 67 68 69 69 69 69 68 69 69 69 69 68 67 66 65 64 64 64 63 62 61 61 62 62 63 65 67 67 67 68 69 69
31 31 30 29 29 29 29 29 30 30 31 31 30 29 30 32 33 33 35 37 37 37 38 39 40 40 42 44 47 50 52 53 54 55 56 57 58 59 60 60 60 61 61 63 64 65 67 67 67 67 67 66 66 67 68 69 69 69 68 68 68 68 69 69 68 66 65 64 63 64 64 64 65 65 66 66 66 66 67 69 69 69 70 71 70
34 33 33 32 30 28 28 30 32 34 34 34 33 33 34 36 36 37 40 41 42 42 43 44 45 45 46 48 50 52 53 54 56 56 57 58 58 59 60 61 61 61 62 63 65 66 68 68 67 66 66 66 66 68 69 69 68 68 68 68 68 69 69 68 67 66 64 63 64 64 64 65 67 68 68 69 69 69 71 71 71 71 72 73 72
36 36 35 35 33 32 33 35 38 39 38 38 37 37 37 38 39 41 42 43 44 44 45 46 47 48 49 50 52 53 54 55 56 57 58 58 59 60 61 61 61 61 61 63 64 65 67 66 65 64 65 65 66 68 68 67 67 67 67 68 69 68 68 68 67 65 64 63 64 64 65 66 68 69 70 71 72 73 74 74 74 74 75 76 75
38 38 37 37 36 36 37 39 40 41 40 41 41 40 39 40 41 42 42 43 44 45 45 46 48 49 50 51 52 53 55 56 57 58 59 59 60 60 61 61 61 61 61 63 64 64 65 65 64 64 65 66 66 66 66 65 66 67 68 68 69 68 68 67 65 64 64 64 64 64 66 68 70 71 72 73 75 77 77 77 76 76 78 79 79
39 40 40 40 39 39 40 40 42 42 43 43 44 43 42 42 42 43 44 44 46 47 48 49 50 51 52 52 53 54 55 57 58 59 60 60 59 60 61 61 61 62 63 64 64 65 65 65 64 64 64 64 64 64 64 65 66 67 68 68 68 68 67 66 65 65 64 64 65 66 68 69 71 72 74 75 77 79 79 78 78 79 79 81 81
42 42 42 42 42 42 43 43 44 45 45 46 47 47 46 46 46 47 47 47 48 49 50 51 52 53 53 54 55 56 57 58 59 60 60 61 61 62 62 62 63 64 65 65 65 65 65 65 64 63 63 62 63 63 64 65 66 67 67 67 67 67 67 66 66 66 65 65 66 68 70 71 72 73 74 76 78 80 81 80 80 81 81 82 83
45 45 45 45 45 45 46 46 47 47 47 48 48 49 49 49 49 50 50 50 50 51 52 53 54 54 55 56 57 58 59 59 60 60 60 61 62 63 64 64 64 64 65 65 65 65 65 65 65 63 62 62 62 63 64 65 66 66 67 67 67 67 67 67 67 67 67 67 68 70 72 73 73 74 76 78 79 81 82 83 83 83 83 84 84
47 47 47 48 48 48 48 48 48 49 49 49 49 50 50 50 51 51 52 52 52 54 54 55 56 57 57 58 59 60 60 61 61 61 61 61 61 62 64 64 64 64 63 63 64 64 65 65 65 64 63 62 63 64 65 66 66 66 66 66 66 66 66 67 67 68 69 70 71 72 73 74 75 76 77 79 80 82 84 85 85 85 85 85 85
49 49 49 50 50 50 50 50 50 50 50 50 51 51 51 51 52 53 53 53 54 55 56 56 57 58 58 59 60 61 62 62 62 62 63 62 61 61 63 63 63 63 62 62 63 64 65 65 65 64 63 63 64 65 66 66 66 65 65 65 65 64 64 65 67 68 69 71 73 74 75 75 76 77 78 79 80 83 85 86 87 87 86 86 87
50 51 51 52 52 52 52 52 51 51 52 52 52 53 53 53 53 54 54 54 54 56 57 57 58 59 59 60 61 63 64 64 63 64 64 63 62 61 61 62 63 62 61 62 63 64 65 66 66 65 65 65 66 66 66 66 65 65 64 64 64 63 64 65 67 68 70 71 74 75 76 77 78 79 80 80 81 83 86 88 89 88 87 87 88
53 53 53 53 54 53 53 53 53 53 54 54 54 55 56 56 56 56 56 56 56 57 58 59 60 60 60 61 62 64 65 65 65 65 64 64 62 61 60 61 63 63 62 62 63 64 65 66 67 67 66 67 67 67 66 66 66 65 64 64 63 63 63 65 67 69 71 72 74 75 77 78 80 80 80 80 82 84 86 88 89 88 87 87 88
55 56 55 55 55 55 55 55 55 56 56 56 57 58 58 58 58 58 58 58 59 59 60 60 61 61 61 62 63 64 65 66 65 65 65 64 62 60 59 61 64 64 63 63 63 64 65 65 66 67 67 68 68 68 67 67 66 65 64 63 63 64 64 65 67 69 71 73 74 76 77 79 80 80 81 82 84 86 87 89 89 88 87 87 88
57 58 57 57 57 57 57 57 58 58 58 58 58 59 59 60 60 60 59 59 60 61 61 61 61 62 63 64 64 64 66 66 66 66 65 63 61 60 59 60 63 65 64 64 63 63 63 64 65 66 67 68 69 69 69 68 68 66 65 65 65 65 66 67 68 69 71 74 76 78 79 80 81 82 83 85 86 87 89 89 88 88 87 87 88
59 60 59 59 59 59 59 59 59 60 60 60 60 60 60 61 62 60 60 61 62 62 62 62 63 64 64 65 65 66 66 67 66 65 64 61 60 60 59 60 62 64 65 64 63 62 62 63 65 66 68 69 70 70 70 69 69 68 67 67 68 69 70 71 71 72 73 76 78 79 81 82 83 84 85 87 88 89 90 89 88 88 88 88 89
61 62 61 60 60 61 61 61 61 61 61 62 62 62 62 63 62 61 61 63 63 63 63 64 65 66 66 66 66 67 67 66 66 64 62 61 60 60 60 61 62 63 64 64 64 63 63 64 66 67 68 69 70 70 70 70 70 70 70 71 72 73 74 75 75 76 78 80 82 83 84 85 86 87 88 89 90 90 90 89 88 88 89 90 90
62 63 63 62 62 62 62 62 62 62 62 63 63 63 63 64 63 63 64 65 65 64 64 65 67 68 68 67 67 67 67 66 65 63 62 61 60 60 60 61 61 62 63 63 64 65 65 66 67 69 69 70 70 70 70 70 71 71 72 74 76 77 78 78 79 82 84 85 86 86 87 88 89 90 90 90 91 91 90 89 88 89 90 91 91
64 65 65 64 64 64 64 64 63 63 63 63 63 64 64 64 64 64 65 67 67 66 66 67 68 69 69 68 67 67 67 65 63 62 61 61 61 60 61 61 62 62 63 63 64 65 65 66 67 69 69 70 71 71 71 72 72 74 76 78 79 80 81 82 84 86 87 88 88 88 89 90 91 91 91 91 90 89 89 89 90 91 91 92 92
66 67 67 67 66 66 65 65 65 64 63 63 65 66 66 65 65 66 67 68 69 69 68 68 69 70 69 68 68 67 66 64 62 61 61 61 61 62 62 62 63 63 63 64 65 65 65 66 66 67 68 70 71 71 72 73 75 77 78 80 81 81 83 85 86 87 88 89 90 90 90 91 91 91 91 90 89 88 89 90 91 92 93 93 93
67 68 68 68 67 67 66 66 66 64 63 64 68 69 68 67 68 68 68 69 69 70 69 69 70 70 69 68 68 66 64 62 61 61 62 62 62 63 64 64 64 64 64 64 65 65 65 65 66 67 68 69 70 71 73 74 76 78 79 81 82 83 85 86 87 87 88 89 90 90 91 91 92 91 90 89 89 89 90 92 93 94 94 94 93
68 69 69 68 67 67 67 68 67 66 65 66 68 69 70 70 71 70 70 70 70 70 70 69 70 70 68 67 66 64 62 61 61 62 62 63 64 65 65 65 65 65 64 65 65 65 65 66 66 67 69 70 71 73 75 76 78 79 81 82 83 85 86 86 87 88 89 89 90 91 91 91 90 89 89 89 90 91 92 93 94 94 94 92 90
70 70 70 69 68 68 69 69 69 69 68 68 69 70 71 73 73 72 72 72 72 71 70 69 68 68 67 65 63 62 61 62 63 63 64 65 66 66 66 66 66 66 66 66 67 67 68 68 69 71 72 73 74 75 77 78 80 81 82 84 85 86 87 87 88 89 89 89 89 89 89 88 88 88 90 91 92 93 94 94 93 92 90 88 86
71 70 70 69 69 69 70 70 70 71 71 71 71 72 73 74 73 73 72 72 72 71 70 68 67 66 65 63 61 61 62 63 64 65 66 67 67 67 67 68 68 69 69 70 71 72 73 73 74 75 76 76 77 78 79 80 81 82 83 84 84 84 83 84 84 85 85 86 86 86 86 87 88 90 91 92 93 92 91 90 89 87 86 85 85
71 71 70 70 71 71 71 72 73 73 74 74 74 74 74 74 73 73 72 72 71 70 69 67 66 65 64 62 61 62 63 65 66 67 68 68 68 68 68 68 69 70 71 72 73 74 74 75 76 76 77 77 78 78 79 79 80 80 80 80 80 79 80 81 82 83 84 85 86 87 88 89 90 90 90 90 89 87 86 86 85 85 85 85 85
72 72 72 72 72 73 73 74 75 75 75 75 75 75 75 74 73 72 72 72 71 69 67 65 64 64 64 64 63 63 64 66 67 67 68 68 67 67 67 68 69 70 70 71 72 73 74 74 75 75 76 76 76 76 76 76 76 77 78 79 80 81 82 83 83 84 85 86 87 87 88 88 88 87 86 85 85 84 84 85 85 85 85 86 87
73 73 73 73 74 74 75 75 76 76 76 75 75 75 75 73 72 71 71 70 69 67 65 64 64 64 65 65 65 65 65 66 67 67 67 67 67 67 67 68 68 69 69 70 70 71 72 72 72 72 72 72 73 73 74 75 77 79 80 81 82 83 83 84 84 85 85 85 85 85 85 85 84 84 83 83 84 84 85 85 86 87 87 87 87
74 74 74 75 75 75 75 76 76 76 75 75 74 74 73 71 70 69 69 68 67 66 65 65 65 65 65 65 66 66 65 65 65 66 66 66 66 66 66 67 67 67 67 67 68 68 69 69 69 70 71 72 73 74 76 77 79 80 81 81 81 82 82 82 82 83 83 82 82 82 82 82 83 83 84 84 85 86 86 87 88 88 88 87 86
74 75 75 75 75 76 76 75 75 75 74 73 72 71 70 68 67 67 67 66 66 65 65 65 65 65 65 65 65 65 64 64 64 64 64 65 65 65 65 65 65 65 66 66 67 68 69 70 71 72 73 74 75 76 77 77 78 79 80 80 80 80 80 80 80 80 80 80 81 81 81 82 83 83 84 85 86 87 87 88 87 87 86 85 83
74 74 75 75 75 74 74 73 72 71 70 69 68 67 66 65 65 65 65 65 65 65 65 64 64 64 63 63 63 63 63 62 62 62 62 62 63 63 64 65 65 66 68 69 70 70 71 72 73 74 74 75 75 76 76 77 77 77 78 78 78 78 78 78 78 79 79 80 81 81 82 83 84 84 85 86 86 86 86 86 85 84 83 83 82
72 72 72 71 70 69 68 67 66 66 65 65 64 64 64 63 63 63 63 63 63 63 62 62 61 61 61 60 60 60 60 60 60 61 62 63 64 65 66 67 68 69 70 70 71 71 72 73 73 74 74 74 75 75 75 75 75 76 76 76 76 77 77 78 78 79 80 81 82 83 83 84 84 85 85 85 85 85 84 84 83 82 81 81 81
68 67 66 65 64 63 62 61 61 60 60 60 59 59 59 59 59 58 58 58 58 58 57 57 57 57 57 57 58 59 60 61 62 63 64 65 66 67 68 68 69 69 70 71 71 72 72 73 73 73 73 74 74 74 74 75 75 76 76 77 77 78 79 79 80 81 81 82 83 83 84 84 84 83 83 83 83 82 82 81 81 80 80 80 79
Wind_Direction
245 244 246 246 245 245 245 245 245 246 247 249 253 256 258 262 264 264 263 263 264 263 262 260 260 262 264 266 267 269 271 274 278 281 284 286 288 290 292 292 291 291 291 291 292 295 298 301 303 304 304 304 304 305 306 307 309 310 310 312 312 313 313 313 315 317 320 324 327 325 323 322 322 323 325 326 327 328 328 329 331 332 333 334 336
245 245 246 246 245 245 246 246 246 247 248 250 253 256 258 261 264 265 262 261 262 262 260 259 258 259 262 265 268 270 273 276 280 284 286 288 289 290 289 287 286 287 289 291 293 296 300 302 304 304 304 303 304 305 307 308 309 310 311 312 312 313 315 317 319 322 326 327 325 322 320 320 322 324 326 327 327 328 329 330 332 334 335 336 338
246 244 244 245 245 245 247 247 247 249 250 251 253 256 258 260 263 264 262 258 258 259 259 258 258 259 262 266 270 274 278 281 285 286 287 286 285 284 283 283 284 286 289 292 295 299 302 303 303 303 303 303 305 306 307 308 310 311 312 312 313 315 319 321 324 326 327 324 321 319 319 320 322 325 326 326 327 329 330 332 334 335 336 338 340
248 246 244 244 244 246 247 249 251 252 252 252 253 255 258 261 263 264 262 257 256 258 259 259 259 261 265 269 274 278 282 284 284 283 280 279 278 279 281 283 285 288 291 295 298 301 302 302 302 302 303 304 305 306 308 309 311 312 312 313 316 320 322 325 327 327 324 320 318 318 319 321 324 325 326 327 328 329 331 334 335 336 338 339 340
250 249 246 245 245 247 249 252 254 255 254 255 255 257 259 261 263 263 260 257 255 256 258 260 262 264 268 273 276 279 280 279 277 276 275 277 279 281 284 286 288 291 294 298 300 301 300 300 300 301 303 305 306 307 309 310 311 312 314 318 321 323 325 327 327 323 320 317 317 318 320 322 324 325 326 328 329 331 333 335 336 337 339 339 340
253 252 249 248 247 248 251 254 255 256 257 258 258 259 260 260 260 259 258 257 256 255 257 260 263 266 268 271 273 274 275 275 275 276 278 280 283 285 287 289 291 294 297 299 300 299 298 299 300 302 304 305 306 308 310 310 312 315 320 322 323 324 325 325 322 318 316 316 316 318 321 323 324 325 327 329 330 332 334 335 338 339 339 339 339
254 253 251 250 250 250 252 254 255 256 257 258 258 258 258 257 257 256 256 257 257 257 258 261 264 266 268 269 270 271 272 273 274 276 278 280 283 285 288 291 293 296 298 298 297 297 298 299 301 303 304 305 307 309 310 312 316 321 323 322 322 323 323 321 318 315 314 315 317 320 322 323 325 326 328 329 331 333 335 337 339 339 338 338 337
254 253 252 252 252 252 252 253 254 255 256 256 255 254 255 255 255 255 255 257 258 257 258 260 262 264 266 267 269 270 272 273 275 278 280 283 286 289 292 294 296 298 298 298 298 298 299 300 302 304 305 306 308 310 313 317 322 322 321 320 321 322 320 317 315 314 314 316 319 320 322 323 325 327 329 330 332 335 337 338 338 338 337 337 336
254 255 254 254 253 253 254 254 254 255 255 255 254 253 253 254 255 255 255 255 256 257 258 259 261 262 264 267 269 272 274 276 279 283 286 289 291 294 295 296 297 298 298 299 298 299 300 301 303 304 305 307 310 314 318 321 321 319 318 319 320 319 317 314 313 313 315 317 319 321 322 324 326 328 330 331 334 336 337 337 337 337 336 336 336
259 258 258 257 256 256 255 255 256 256 256 256 256 254 254 255 256 257 256 255 256 257 259 260 262 264 266 268 270 272 275 278 281 284 287 290 292 293 295 296 297 298 298 298 297 298 300 302 303 304 306 310 314 317 319 319 317 317 317 318 317 316 314 312 313 314 317 318 319 321 323 325 327 329 331 333 335 336 336 336 336 336 336 336 337
265 263 263 262 260 259 258 258 258 257 257 258 258 257 257 257 258 259 259 258 257 258 260 262 263 265 267 269 271 274 276 279 283 286 288 290 292 293 294 295 296 297 296 296 296 299 301 302 303 305 309 313 316 317 316 315 315 316 317 316 314 312 311 312 314 316 317 319 320 322 324 325 328 330 331 333 334 335 335 335 334 335 336 337 338
270 268 266 265 263 262 262 261 260 259 259 259 259 259 259 260 261 261 262 261 260 260 261 263 264 266 268 270 273 276 279 282 284 287 289 291 292 292 293 294 295 294 294 294 297 299 301 302 305 308 312 315 315 314 313 314 315 316 316 314 312 312 313 314 316 317 318 319 320 323 324 326 329 331 331 332 333 334 334 333 333 335 337 338 339
277 272 269 267 267 266 266 264 263 262 261 260 260 260 260 261 262 263 264 264 264 264 264 265 267 268 270 272 274 277 280 282 285 287 288 289 290 291 292 292 292 292 293 295 298 300 301 303 306 311 314 314 313 312 312 314 315 315 314 313 312 313 314 315 316 317 318 319 321 323 325 327 330 331 331 332 333 333 332 332 333 335 337 338 339
284 278 274 271 271 271 271 269 266 265 264 263 262 262 262 263 264 264 265 266 266 267 267 268 270 271 272 274 276 278 280 282 284 285 286 288 289 290 290 290 291 292 294 296 299 299 301 304 309 312 314 312 311 310 311 312 313 313 313 313 313 314 315 315 316 317 318 320 322 324 326 328 330 330 329 330 332 332 332 333 334 336 337 339 340
289 285 280 276 274 274 274 272 269 266 266 265 265 265 266 266 266 266 266 267 267 268 269 270 272 273 275 276 277 279 281 282 283 284 286 287 288 288 289 291 293 294 294 296 298 299 302 307 311 312 311 309 307 308 309 309 311 313 314 314 314 315 315 316 317 317 319 321 323 325 326 328 329 329 327 329 332 333 333 334 336 336 337 340 342
289 287 283 278 276 275 275 274 270 267 266 266 266 266 267 268 268 268 268 268 268 269 270 271 272 273 275 277 278 280 282 283 284 284 285 286 286 289 293 295 295 295 296 297 299 303 307 309 309 307 305 304 304 305 306 308 311 314 314 313 314 315 315 316 317 318 320 321 323 324 325 327 328 327 328 331 333 334 334 336 339 339 339 341 343
287 289 286 280 274 271 269 269 267 264 263 263 263 264 265 266 267 268 268 268 269 271 272 273 274 276 278 280 282 284 285 284 284 283 284 285 288 292 296 296 295 296 297 299 302 305 304 303 301 300 300 301 303 304 305 308 311 313 313 313 314 315 315 316 317 318 320 321 322 323 324 326 326 324 327 331 333 335 336 338 340 341 341 341 342
284 288 289 287 280 272 266 265 265 264 264 265 266 268 268 268 269 269 270 272 273 275 276 277 279 281 283 284 285 287 286 283 282 282 284 287 289 292 294 294 294 296 298 300 303 301 297 296 296 297 299 302 303 304 305 308 311 312 313 313 314 314 315 316 317 318 319 320 321 322 323 324 324 323 326 330 333 334 336 339 341 342 341 341 342
282 284 286 287 283 274 269 269 270 270 271 272 274 274 274 274 275 275 276 278 278 279 280 281 282 283 284 286 287 286 284 282 282 284 287 289 289 290 292 293 294 296 299 300 299 296 294 294 295 296 300 302 303 303 305 308 310 311 312 313 313 314 315 315 317 318 318 319 320 321 322 323 324 324 326 329 332 334 336 339 341 341 341 342 342
279 280 281 283 281 276 273 271 272 274 276 276 276 276 277 278 279 280 282 282 280 279 280 282 283 284 286 286 285 282 282 283 285 288 290 290 291 291 292 294 295 297 297 296 294 293 293 293 294 297 300 301 301 302 304 307 309 311 312 312 313 313 314 315 316 317 317 318 319 320 321 323 324 325 327 329 332 334 336 338 340 341 342 342 342
276 276 278 279 279 279 278 276 275 276 276 276 275 275 277 279 279 281 283 281 279 279 281 283 283 282 280 279 278 280 283 286 288 290 291 291 292 292 292 293 294 294 293 291 291 292 293 293 295 297 299 300 300 302 304 306 308 310 311 311 312 313 313 314 315 316 316 316 317 319 322 324 325 326 328 330 332 334 336 337 338 340 341 342 342
274 274 276 276 276 281 285 283 278 274 271 272 273 273 273 273 274 275 277 277 276 277 278 279 279 278 276 275 276 279 283 286 287 288 288 288 289 289 289 290 290 290 290 290 291 292 292 294 296 297 298 299 300 301 303 305 307 309 310 310 311 312 312 313 314 315 315 315 316 320 322 324 326 327 329 330 331 333 335 336 337 338 340 341 341
273 273 273 273 273 276 277 273 268 266 266 268 269 269 268 269 271 273 275 276 276 275 274 275 276 277 276 277 278 280 283 285 287 288 288 288 288 288 289 289 290 291 291 292 292 292 293 294 296 297 297 298 299 300 302 305 307 308 309 309 310 311 311 312 313 314 314 314 316 320 323 325 326 327 328 329 331 332 333 334 335 336 338 339 340
272 272 272 272 271 269 266 264 264 266 267 269 270 271 272 273 274 275 275 276 277 277 276 276 277 278 279 280 281 282 284 286 287 288 288 289 289 289 290 291 292 292 292 292 291 292 292 293 295 296 296 297 298 300 302 304 306 307 307 308 309 310 310 311 313 313 313 314 317 320 323 325 326 327 328 329 330 331 331 332 333 335 336 337 338
271 271 272 272 271 270 268 268 269 270 272 273 275 275 275 276 276 275 275 277 278 279 279 280 280 281 282 283 284 285 285 286 286 287 287 288 288 289 290 290 291 291 290 290 290 290 291 292 294 294 295 296 298 300 302 303 304 305 306 307 308 309 309 310 311 312 312 314 318 321 323 324 325 326 327 328 329 329 328 329 331 333 334 336 336
271 271 271 271 271 271 271 271 271 272 273 274 275 275 275 275 276 276 277 279 280 281 281 282 282 283 284 284 285 285 285 285 285 285 285 285 286 287 288 288 288 289 288 288 289 290 291 291 292 293 294 295 297 299 301 302 303 305 306 307 307 308 308 309 310 311 312 315 318 320 322 323 324 326 327 327 327 326 326 327 329 330 332 333 334
271 271 272 272 272 272 272 272 272 273 274 275 276 277 277 277 277 277 278 279 280 280 281 281 281 282 283 283 284 284 284 285 285 286 286 286 286 286 286 287 287 287 288 289 290 290 291 291 291 292 293 295 297 298 300 301 303 304 305 306 307 307 307 308 309 311 313 316 318 319 321 322 323 324 324 324 324 323 324 325 327 328 330 332 333
271 272 272 273 273 273 273 274 274 275 276 277 278 279 279 279 279 279 279 279 280 280 280 281 281 282 282 283 284 285 286 287 288 289 289 288 288 287 287 286 287 287 288 290 291 292 292 292 292 292 293 295 296 297 299 300 302 303 304 305 306 306 307 308 310 312 314 316 317 318 319 321 321 321 322 322 322 321 321 323 325 326 328 329 330
271 272 273 274 275 275 275 276 276 277 278 279 280 280 280 280 280 279 279 279 280 280 281 282 282 283 283 285 286 286 287 288 289 291 291 291 290 289 287 287 287 288 289 291 292 292 292 292 292 292 293 294 295 296 298 300 301 302 303 305 306 306 307 309 311 313 314 315 316 317 317 318 319 319 319 319 319 319 320 322 323 324 325 327 328
271 272 274 275 275 276 277 277 278 279 280 281 281 281 281 281 281 280 280 281 281 281 282 282 283 283 284 285 286 286 287 288 289 291 292 292 291 289 288 288 287 288 289 290 291 291 291 291 291 292 292 293 294 296 297 298 300 301 303 304 305 306 307 309 311 312 313 313 313 314 314 315 316 316 317 317 317 317 318 320 321 322 323 325 326
271 272 274 275 276 277 278 279 280 281 282 282 282 282 282 282 282 282 282 282 282 282 282 282 282 283 284 284 285 285 286 288 290 291 292 291 290 288 287 287 287 287 288 289 290 291 292 292 292 292 293 293 294 295 296 297 299 301 303 304 305 305 306 308 309 310 310 310 310 311 311 312 313 314 315 315 316 316 316 317 319 320 322 324 324
272 272 273 274 276 277 279 280 281 281 282 282 282 282 282 282 283 283 283 283 283 283 283 283 283 284 284 285 285 286 287 288 290 292 292 291 289 288 287 287 288 288 288 290 291 292 292 293 293 293 293 293 293 294 295 297 299 300 302 303 304 304 304 306 307 307 307 307 307 308 309 310 311 313 313 313 313 313 314 315 317 319 320 321 321
272 273 274 275 276 277 278 279 280 281 282 282 282 282 283 283 283 283 284 285 284 284 284 284 285 285 285 285 285 287 288 289 290 291 290 289 288 287 287 288 289 289 290 290 291 291 292 291 292 292 293 293 293 294 296 297 299 301 302 303 302 302 302 304 305 304 304 304 305 306 307 308 309 309 309 309 310 311 312 314 316 317 319 319 318
273 274 275 277 278 278 279 279 280 281 282 282 282 283 283 283 283 284 285 286 285 285 285 286 286 286 286 286 287 287 288 289 290 290 290 289 288 287 286 287 287 288 289 290 290 290 290 290 291 292 292 292 293 295 296 298 300 301 302 301 301 301 302 303 303 303 302 303 304 305 306 307 307 307 307 307 308 310 311 313 315 316 316 316 315
274 275 276 277 278 279 279 280 281 282 282 282 282 283 283 283 284 285 286 285 285 286 286 286 286 286 286 287 288 288 289 290 290 290 289 288 286 285 284 285 285 287 288 289 289 289 289 290 290 291 291 292 293 295 297 298 300 301 301 301 301 301 302 303 303 302 301 302 303 304 304 304 304 304 305 306 307 309 311 313 314 314 314 313 312
274 275 276 277 278 279 280 280 281 282 282 282 283 283 284 284 284 285 285 284 285 286 286 287 287 287 287 288 289 289 290 290 290 289 287 285 284 284 284 285 286 288 290 290 291 291 291 290 290 290 291 292 294 295 297 298 299 300 300 300 301 301 302 302 302 301 301 301 302 302 302 301 302 303 304 306 308 309 310 311 311 311 310 310 310
274 276 276 277 278 279 280 280 281 281 281 282 283 284 284 284 284 284 284 284 285 286 286 286 287 287 288 288 289 289 290 289 288 287 286 285 284 284 285 286 288 289 289 289 290 290 290 291 291 291 292 293 294 295 296 297 298 299 299 299 300 301 300 300 299 299 299 300 300 300 300 300 302 303 305 306 308 308 308 308 308 308 307 307 309
275 276 277 278 278 279 279 280 280 280 281 282 283 282 282 282 283 284 284 285 286 286 286 286 287 287 288 289 289 289 288 288 287 286 285 284 284 284 285 286 287 288 287 287 287 287 288 289 290 292 292 293 294 295 296 297 297 297 297 297 298 297 297 296 297 297 297 297 298 298 299 301 302 303 305 305 306 306 306 305 305 305 305 307 309
275 276 277 278 278 279 279 280 280 280 281 281 280 279 280 281 282 283 284 285 286 286 287 287 287 287 288 289 288 287 287 286 285 284 283 283 284 285 286 286 287 287 287 286 285 285 285 286 287 289 290 292 293 294 294 294 294 294 294 294 294 294 294 294 294 295 296 296 298 299 300 301 301 302 303 303 303 303 303 303 303 303 305 307 308
275 276 277 277 278 279 279 279 279 279 279 279 280 280 282 282 283 283 284 284 285 286 287 287 287 287 288 287 287 286 286 284 283 282 282 283 284 285 286 286 286 286 286 285 285 284 284 284 284 285 286 288 289 290 290 290 290 290 290 291 291 291 292 292 293 294 295 296 297 298 298 299 300 300 301 301 301 301 300 301 302 303 305 306 306
275 275 276 277 278 279 279 279 279 278 278 278 280 282 283 283 283 284 284 285 285 285 285 286 286 287 287 286 285 285 284 283 282 281 282 283 283 284 285 285 285 285 285 285 285 284 284 284 284 284 284 284 285 286 286 287 287 288 288 289 290 290 291 292 293 294 294 295 295 295 296 297 298 298 298 298 298 298 299 300 302 303 304 304 304
274 275 277 278 278 278 278 278 278 279 279 279 279 281 282 282 284 284 285 285 285 285 286 286 286 285 285 284 283 283 282 282 281 282 282 283 284 284 285 285 285 285 285 285 285 285 285 285 285 285 285 285 285 286 286 287 287 288 288 289 289 290 291 291 292 292 292 293 293 294 294 295 296 296 296 296 297 298 299 301 302 302 303 304 305
275 276 277 277 278 278 278 278 279 279 279 280 280 281 282 283 284 284 285 285 285 285 285 285 285 284 283 282 282 281 281 282 282 283 284 284 285 286 286 286 286 285 285 285 285 285 285 285 286 286 286 286 286 286 286 287 287 288 288 289 289 290 291 291 291 291 292 292 293 293 294 294 294 294 295 296 298 299 300 301 301 302 303 305 306
276 276 277 277 277 277 278 278 279 279 280 281 281 282 282 283 284 284 284 284 284 284 285 284 284 283 282 282 281 281 281 282 283 283 284 284 285 285 284 284 283 283 283 283 283 284 284 284 284 285 285 285 286 286 286 287 288 288 288 289 290 291 291 291 291 292 292 292 292 293 293 294 294 295 296 298 299 299 300 301 302 303 304 305 306
276 276 277 277 277 278 278 279 279 280 281 282 282 283 283 284 284 284 284 284 284 284 284 284 283 282 282 282 282 282 283 283 284 284 284 284 284 284 284 283 283 283 283 283 283 284 284 284 285 285 285 286 286 287 287 288 288 289 289 290 291 291 291 291 292 292 292 293 293 294 294 295 296 297 298 299 299 300 301 302 303 304 304 304 304
275 276 276 277 277 278 279 279 280 281 282 282 283 283 283 284 284 283 283 283 283 283 283 282 282 282 282 283 284 284 284 284 284 285 285 285 285 285 285 285 285 285 285 285 285 285 285 285 286 286 287 287 287 288 288 289 289 289 290 291 291 291 292 292 292 293 293 294 295 295 296 297 297 298 299 299 300 301 302 303 303 303 303 303 303
275 276 276 277 278 278 279 280 280 281 282 282 282 282 282 282 282 281 281 281 281 282 282 282 282 282 283 283 284 285 285 285 285 286 286 287 287 287 286 286 286 286 286 286 286 286 286 286 287 287 288 288 288 289 289 289 290 290 290 291 291 291 292 292 293 294 294 295 295 296 296 297 298 298 299 300 301 302 302 302 302 302 301 302 303
275 276 276 277 278 278 279 279 280 280 280 280 280 280 280 280 279 279 279 280 280 281 281 281 282 283 283 284 285 285 286 286 286 287 287 287 287 287 287 287 287 287 287 287 287 287 287 288 288 288 288 289 289 289 289 290 290 290 291 291 291 292 292 293 293 294 295 295 296 296 297 297 298 299 300 300 300 300 300 300 300 301 302 303 304
275 276 276 277 278 278 279 279 279 279 279 279 279 279 279 278 278 278 279 279 280 280 281 282 283 284 284 285 285 286 286 286 286 286 286 286 287 287 287 287 287 287 288 288 288 288 288 288 289 289 289 289 289 290 290 290 290 291 291 292 292 292 293 294 294 294 295 296 296 297 297 298 298 298 298 298 298 299 299 300 301 302 303 303 303
275 276 276 277 277 278 278 278 278 278 278 278 278 278 278 278 278 279 279 280 280 281 282 283 283 284 284 285 285 285 285 286 286 286 286 287 287 287 287 287 288 288 288 288 288 288 288 288 288 289 289 289 290 290 290 290 291 291 291 292 292 293 293 294 294 295 295 296 296 296 297 297 297 297 298 298 299 300 301 302 302 302 303 303 304
274 275 275 276 277 277 277 277 277 277 278 278 278 278 278 279 279 280 280 280 281 282 283 283 284 284 284 285 285 285 286 286 286 286 286 287 287 287 287 287 287 287 287 287 288 288 288 288 288 289 289 289 290 290 290 291 291 292 292 292 293 293 294 294 294 295 295 295 295 296 296 297 297 298 299 300 301 301 301 301 302 302 303 304 304
Height
10686 10687 10689 10689 10690 10691 10692 10693 10694 10696 10697 10697 10697 10698 10699 10699 10699 10699 10699 10698 10699 10699 10699 10699 10699 10699 10699 10699 10699 10699 10699 10698 10698 10697 10696 10695 10694 10692 10691 10689 10687 10686 10684 10682 10680 10677 10675 10672 10669 10667 10664 10661 10658 10654 10651 10647 10643 10639 10635 10631 10626 10622 10618 10614 10609 10603 10597 10591 10586 10580 10575 10570 10564 10558 10551 10543 10535 10527 10519 10511 10504 10496 10489 10482 10475
10681 10682 10684 10684 10685 10686 10687 10689 10690 10691 10692 10692 10693 10693 10694 10694 10694 10694 10694 10694 10694 10694 10695 10695 10695 10694 10694 10694 10694 10694 10694 10694 10693 10692 10691 10690 10688 10687 10685 10684 10683 10681 10679 10677 10674 10671 10669 10666 10663 10661 10658 10655 10652 10648 10645 10641 10637 10633 10629 10625 10621 10617 10613 10608 10603 10598 10592 10587 10582 10577 10572 10565 10559 10552 10545 10538 10531 10523 10515 10506 10498 10491 10483 10476 10469
10676 10678 10679 10679 10681 10681 10682 10684 10685 10686 10687 10687 10688 10688 10689 10690 10690 10690 10689 10689 10689 10690 10690 10691 10691 10690 10690 10690 10690 10690 10689 10689 10688 10687 10686 10684 10683 10682 10680 10679 10677 10676 10673 10671 10668 10666 10663 10660 10658 10655 10652 10649 10646 10642 10639 10635 10632 10628 10624 10620 10616 10612 10607 10603 10598 10592 10587 10582 10578 10573 10567 10560 10554 10546 10539 10532 10526 10519 10512 10503 10494 10486 10478 10471 10465
10672 10673 10674 10675 10676 10677 10678 10679 10680 10681 10682 10682 10683 10683 10684 10684 10685 10685 10685 10685 10685 10685 10686 10686 10686 10686 10686 10686 10686 10686 10685 10685 10683 10682 10681 10680 10678 10677 10675 10673 10672 10670 10668 10665 10663 10660 10657 10655 10652 10650 10647 10644 10640 10637 10634 10630 10627 10623 10619 10614 10610 10606 10602 10597 10592 10587 10582 10578 10573 10567 10562 10556 10549 10542 10534 10526 10519 10513 10507 10500 10491 10482 10475 10469 10462
10668 10669 10670 10671 10671 10672 10673 10674 10675 10676 10676 10677 10678 10678 10679 10679 10680 10680 10681 10681 10681 10681 10681 10682 10682 10682 10682 10682 10682 10682 10681 10680 10679 10678 10676 10675 10673 10671 10670 10668 10666 10664 10662 10660 10657 10655 10652 10650 10647 10644 10641 10638 10635 10632 10629 10625 10621 10617 10613 10609 10604 10600 10596 10591 10586 10581 10578 10573 10568 10562 10556 10550 10544 10538 10531 10523 10514 10506 10501 10496 10489 10481 10472 10466 10460
10665 10665 10666 10666 10666 10668 10669 10669 10670 10671 10671 10671 10672 10673 10673 10674 10675 10675 10676 10676 10677 10677 10677 10678 10678 10678 10678 10678 10678 10677 10676 10675 10674 10673 10671 10669 10667 10666 10664 10662 10660 10658 10656 10654 10652 10649 10647 10644 10641 10639 10636 10633 10630 10627 10624 10620 10616 10612 10607 10603 10598 10594 10589 10585 10581 10577 10572 10568 10562 10557 10551 10545 10539 10533 10526 10520 10512 10503 10496 10490 10484 10478 10471 10464 10458
10661 10661 10662 10662 10663 10664 10665 10665 10666 10666 10666 10666 10667 10668 10668 10669 10670 10671 10671 10672 10672 10673 10673 10673 10674 10674 10673 10673 10672 10672 10671 10670 10669 10667 10665 10664 10662 10660 10658 10657 10655 10653 10651 10648 10646 10643 10641 10639 10636 10634 10631 10628 10625 10622 10619 10615 10610 10606 10601 10597 10593 10589 10584 10580 10576 10572 10568 10562 10557 10551 10546 10540 10535 10528 10521 10515 10508 10501 10493 10485 10479 10474 10469 10463 10456
10657 10657 10658 10658 10659 10659 10660 10661 10662 10661 10661 10662 10662 10663 10664 10664 10665 10666 10667 10667 10668 10668 10669 10669 10669 10669 10668 10668 10667 10666 10665 10664 10663 10661 10660 10658 10656 10654 10653 10651 10649 10647 10645 10642 10640 10638 10636 10633 10631 10629 10626 10623 10621 10617 10613 10609 10604 10600 10596 10592 10588 10584 10580 10576 10572 10568 10563 10557 10552 10546 10540 10534 10529 10523 10516 10509 10502 10496 10489 10483 10476 10471 10465 10460 10454
10652 10652 10654 10654 10654 10655 10655 10656 10657 10657 10657 10657 10658 10659 10659 10660 10661 10662 10662 10663 10663 10664 10664 10664 10664 10664 10663 10662 10661 10660 10658 10658 10657 10655 10654 10652 10650 10648 10646 10645 10643 10641 10639 10637 10634 10632 10630 10629 10627 10624 10621 10619 10616 10612 10607 10603 10599 10595 10592 10587 10583 10579 10576 10572 10568 10563 10558 10553 10547 10541 10535 10529 10522 10516 10510 10504 10498 10492 10486 10480 10474 10467 10461 10455 10450
10649 10649 10649 10650 10650 10650 10650 10651 10652 10652 10653 10653 10654 10655 10656 10656 10656 10657 10658 10658 10658 10659 10659 10659 10659 10658 10657 10656 10655 10654 10653 10652 10651 10649 10648 10646 10644 10643 10641 10639 10638 10636 10634 10631 10629 10627 10626 10624 10622 10619 10617 10614 10610 10606 10602 10598 10595 10591 10587 10583 10579 10575 10571 10567 10563 10558 10553 10547 10542 10536 10530 10523 10517 10511 10505 10499 10494 10489 10483 10477 10471 10465 10458 10451 10445
10646 10645 10646 10646 10646 10646 10646 10647 10648 10648 10649 10649 10650 10651 10651 10652 10652 10652 10653 10653 10653 10654 10654 10654 10654 10653 10652 10650 10649 10648 10647 10646 10645 10644 10642 10641 10639 10637 10636 10634 10633 10631 10628 10626 10624 10623 10621 10619 10617 10615 10612 10609 10604 10601 10597 10594 10590 10586 10582 10578 10574 10571 10567 10562 10558 10552 10547 10542 10536 10531 10525 10519 10512 10506 10500 10495 10489 10484 10479 10474 10469 10463 10457 10450 10443
10643 10643 10643 10642 10642 10643 10643 10644 10644 10644 10645 10645 10645 10646 10646 10646 10647 10647 10647 10647 10648 10649 10648 10648 10648 10647 10646 10645 10643 10642 10642 10641 10639 10638 10636 10635 10633 10631 10630 10629 10627 10625 10623 10621 10620 10618 10616 10614 10613 10610 10606 10603 10599 10596 10592 10589 10585 10582 10578 10574 10570 10566 10561 10557 10552 10546 10541 10536 10531 10526 10520 10514 10508 10502 10496 10491 10485 10480 10476 10471 10466 10460 10454 10447 10441
10641 10640 10640 10639 10640 10640 10640 10641 10641 10641 10641 10641 10641 10642 10642 10641 10642 10642 10642 10642 10643 10643 10643 10643 10643 10642 10641 10639 10638 10637 10636 10635 10634 10632 10631 10629 10628 10626 10625 10624 10622 10620 10618 10617 10615 10613 10611 10610 10607 10604 10600 10597 10593 10590 10587 10584 10581 10577 10574 10570 10565 10561 10556 10551 10546 10541 10536 10531 10525 10520 10514 10509 10503 10498 10493 10488 10483 10479 10474 10468 10462 10457 10451 10445 10438
10638 10637 10637 10637 10637 10637 10637 10637 10637 10637 10637 10637 10637 10638 10638 10637 10637 10638 10638 10637 10637 10637 10637 10637 10637 10636 10635 10634 10632 10631 10631 10630 10628 10627 10626 10624 10623 10621 10620 10618 10617 10616 10614 10612 10611 10609 10606 10605 10601 10598 10594 10591 10588 10585 10583 10580 10577 10573 10569 10565 10561 10556 10551 10547 10542 10537 10531 10526 10520 10514 10508 10504 10499 10495 10491 10487 10483 10478 10472 10466 10459 10453 10448 10442 10435
10635 10634 10634 10634 10634 10634 10634 10633 10633 10633 10633 10633 10633 10634 10634 10634 10633 10633 10633 10633 10633 10632 10632 10632 10632 10631 10630 10628 10626 10626 10626 10624 10623 10622 10621 10619 10618 10616 10615 10614 10612 10611 10610 10608 10606 10604 10601 10598 10595 10591 10588 10586 10584 10581 10578 10575 10572 10568 10564 10559 10555 10551 10546 10541 10537 10531 10526 10521 10515 10509 10504 10500 10496 10492 10488 10484 10479 10474 10469 10464 10457 10451 10444 10438 10431
10632 10632 10631 10630 10630 10630 10630 10629 10629 10629 10629 10629 10629 10629 10630 10630 10629 10629 10629 10629 10628 10628 10627 10627 10627 10626 10625 10623 10622 10622 10622 10619 10618 10617 10616 10615 10613 10612 10611 10610 10608 10606 10605 10603 10601 10598 10595 10592 10589 10587 10585 10582 10579 10576 10573 10570 10567 10563 10559 10554 10549 10545 10541 10536 10532 10527 10522 10517 10511 10506 10502 10497 10493 10489 10485 10480 10475 10470 10465 10459 10454 10448 10442 10436 10430
10629 10629 10628 10628 10627 10626 10625 10625 10624 10624 10624 10624 10625 10625 10626 10626 10625 10625 10625 10624 10624 10624 10623 10623 10623 10622 10621 10619 10618 10619 10617 10613 10612 10612 10611 10610 10609 10608 10607 10605 10603 10601 10599 10597 10595 10592 10589 10587 10585 10583 10580 10577 10574 10570 10567 10564 10561 10557 10553 10549 10544 10540 10536 10531 10526 10522 10517 10513 10508 10504 10499 10495 10491 10487 10483 10478 10472 10467 10461 10456 10451 10446 10441 10436 10430
10626 10626 10625 10625 10623 10622 10621 10621 10620 10621 10621 10621 10621 10622 10622 10621 10621 10621 10620 10620 10620 10620 10619 10619 10619 10619 10617 10615 10614 10614 10611 10608 10607 10607 10606 10606 10605 10603 10601 10599 10598 10596 10594 10592 10589 10587 10585 10583 10580 10578 10575 10572 10568 10565 10561 10558 10555 10551 10547 10543 10539 10535 10530 10526 10521 10516 10512 10508 10504 10500 10495 10491 10487 10483 10479 10475 10470 10465 10459 10454 10448 10443 10438 10433 10428
10624 10623 10623 10622 10620 10618 10618 10618 10618 10618 10618 10619 10619 10619 10618 10618 10617 10617 10617 10617 10617 10616 10616 10615 10615 10615 10613 10610 10609 10609 10605 10602 10601 10602 10602 10601 10599 10598 10596 10594 10592 10591 10588 10586 10584 10582 10580 10577 10575 10573 10570 10566 10562 10559 10555 10552 10548 10545 10541 10537 10533 10529 10524 10520 10516 10511 10507 10503 10499 10495 10491 10487 10483 10479 10475 10471 10466 10461 10456 10451 10446 10440 10435 10429 10424
10621 10620 10620 10620 10617 10616 10616 10617 10616 10616 10616 10616 10615 10615 10615 10614 10614 10614 10614 10614 10613 10612 10612 10612 10611 10611 10609 10606 10604 10602 10600 10598 10597 10596 10596 10594 10593 10592 10590 10587 10586 10584 10583 10581 10579 10577 10574 10571 10569 10567 10564 10560 10556 10553 10549 10546 10542 10539 10536 10531 10527 10523 10519 10515 10510 10506 10502 10498 10494 10490 10486 10482 10478 10474 10470 10465 10461 10457 10451 10446 10442 10437 10431 10425 10420
10617 10617 10617 10617 10616 10615 10615 10614 10613 10613 10613 10611 10610 10611 10611 10611 10611 10612 10611 10609 10609 10608 10608 10607 10607 10607 10605 10602 10599 10596 10594 10593 10592 10591 10589 10588 10586 10585 10583 10581 10580 10579 10577 10575 10573 10571 10567 10564 10563 10562 10558 10554 10551 10547 10543 10540 10536 10533 10530 10526 10522 10517 10513 10509 10505 10502 10497 10493 10489 10485 10480 10476 10472 10468 10464 10459 10455 10451 10446 10441 10437 10432 10427 10422 10417
10613 10614 10614 10614 10614 10613 10612 10611 10610 10609 10608 10607 10606 10606 10607 10607 10607 10608 10607 10604 10604 10605 10604 10603 10603 10602 10600 10598 10595 10593 10591 10589 10588 10586 10584 10583 10581 10579 10578 10576 10574 10573 10572 10570 10567 10564 10560 10558 10558 10555 10551 10548 10544 10541 10537 10533 10530 10527 10524 10520 10516 10512 10507 10504 10500 10496 10492 10488 10483 10479 10475 10470 10466 10461 10457 10453 10449 10444 10440 10436 10432 10427 10422 10418 10413
10610 10610 10610 10610 10611 10611 10609 10607 10605 10604 10604 10604 10603 10603 10603 10603 10603 10603 10602 10601 10600 10600 10599 10598 10597 10596 10595 10593 10591 10589 10587 10585 10583 10581 10579 10578 10576 10574 10572 10570 10569 10568 10566 10563 10560 10557 10553 10551 10551 10548 10544 10541 10538 10534 10531 10527 10524 10521 10517 10514 10510 10506 10501 10498 10494 10490 10486 10482 10477 10473 10469 10464 10460 10455 10451 10447 10442 10438 10434 10430 10426 10422 10417 10413 10409
10605 10605 10605 10606 10606 10606 10605 10603 10601 10600 10601 10600 10599 10599 10599 10599 10598 10597 10597 10596 10595 10594 10593 10592 10591 10590 10589 10588 10586 10584 10583 10581 10578 10575 10573 10572 10570 10568 10566 10564 10563 10561 10559 10555 10553 10550 10546 10544 10544 10541 10537 10534 10531 10527 10524 10521 10517 10514 10511 10507 10504 10500 10496 10492 10488 10484 10480 10476 10472 10467 10463 10458 10454 10449 10445 10440 10436 10432 10428 10424 10420 10416 10412 10407 10403
10601 10601 10600 10600 10600 10600 10599 10598 10597 10596 10596 10595 10594 10594 10594 10593 10592 10591 10591 10590 10589 10588 10588 10587 10585 10584 10583 10581 10580 10578 10576 10574 10571 10569 10567 10565 10563 10561 10559 10558 10556 10554 10551 10547 10545 10543 10540 10537 10537 10534 10530 10527 10524 10520 10517 10514 10511 10508 10504 10501 10497 10493 10490 10486 10482 10478 10474 10470 10466 10462 10457 10453 10448 10444 10439 10435 10430 10426 10422 10418 10414 10409 10405 10401 10396
10596 10595 10595 10595 10595 10594 10593 10592 10591 10591 10591 10590 10588 10588 10588 10588 10587 10586 10585 10585 10584 10583 10582 10581 10579 10578 10576 10575 10574 10571 10569 10567 10564 10562 10560 10558 10557 10555 10552 10551 10549 10546 10543 10540 10538 10536 10532 10529 10528 10526 10523 10520 10517 10514 10510 10508 10504 10501 10498 10494 10490 10487 10483 10480 10476 10472 10469 10465 10460 10456 10452 10447 10443 10438 10434 10429 10425 10421 10417 10413 10409 10405 10401 10397 10392
10590 10589 10589 10589 10589 10588 10588 10587 10586 10586 10586 10585 10583 10582 10582 10582 10581 10580 10580 10580 10578 10577 10576 10574 10573 10572 10570 10569 10567 10565 10562 10560 10557 10555 10554 10552 10550 10548 10545 10543 10541 10538 10535 10532 10530 10528 10525 10522 10520 10518 10516 10512 10510 10507 10504 10501 10498 10494 10491 10487 10484 10480 10476 10473 10469 10466 10462 10458 10454 10450 10446 10442 10437 10433 10429 10424 10420 10416 10411 10408 10404 10400 10396 10392 10388
10584 10584 10583 10583 10583 10583 10582 10582 10581 10580 10580 10579 10578 10577 10576 10576 10575 10574 10574 10574 10572 10571 10569 10568 10567 10566 10564 10562 10560 10558 10555 10553 10551 10549 10547 10545 10543 10540 10537 10535 10532 10530 10527 10525 10523 10521 10517 10514 10512 10511 10508 10505 10503 10500 10497 10494 10491 10488 10484 10481 10477 10473 10469 10465 10462 10459 10455 10451 10448 10444 10439 10435 10432 10427 10423 10419 10414 10409 10405 10401 10398 10394 10390 10387 10383
10578 10578 10577 10577 10577 10577 10577 10576 10575 10574 10574 10573 10572 10571 10570 10570 10569 10567 10566 10567 10566 10564 10563 10561 10560 10559 10558 10556 10553 10551 10548 10546 10544 10542 10539 10538 10536 10533 10529 10527 10525 10522 10520 10518 10516 10513 10509 10506 10504 10503 10501 10498 10496 10493 10490 10487 10485 10481 10477 10474 10470 10467 10463 10459 10455 10451 10447 10443 10440 10436 10432 10428 10425 10421 10417 10413 10408 10403 10398 10394 10391 10388 10384 10381 10377
10572 10572 10572 10571 10571 10571 10570 10570 10569 10568 10567 10567 10566 10564 10563 10563 10562 10561 10560 10560 10559 10557 10556 10555 10553 10551 10551 10549 10546 10542 10540 10538 10537 10534 10531 10530 10529 10526 10522 10519 10517 10515 10513 10511 10509 10505 10502 10498 10496 10495 10494 10491 10489 10486 10483 10481 10478 10474 10471 10467 10463 10460 10456 10453 10449 10445 10441 10437 10433 10429 10426 10422 10419 10415 10411 10407 10402 10396 10391 10387 10384 10381 10378 10374 10370
10566 10566 10566 10565 10565 10565 10564 10564 10563 10562 10561 10560 10559 10557 10556 10556 10555 10554 10553 10553 10552 10550 10548 10547 10546 10544 10543 10542 10538 10534 10532 10531 10529 10527 10524 10521 10520 10518 10515 10512 10509 10507 10506 10504 10501 10498 10494 10491 10488 10487 10486 10484 10481 10479 10476 10473 10470 10467 10464 10461 10457 10453 10449 10445 10442 10439 10435 10431 10427 10423 10419 10415 10412 10408 10404 10399 10394 10389 10384 10380 10377 10374 10371 10368 10364
10560 10560 10560 10560 10560 10559 10558 10557 10557 10556 10555 10554 10552 10550 10548 10548 10548 10546 10545 10545 10544 10542 10540 10539 10538 10536 10535 10533 10530 10526 10524 10523 10522 10519 10516 10512 10510 10510 10508 10505 10500 10498 10498 10496 10493 10491 10487 10484 10481 10479 10478 10476 10473 10471 10469 10466 10463 10460 10457 10453 10450 10447 10443 10439 10435 10431 10427 10424 10421 10417 10413 10409 10405 10401 10397 10393 10389 10384 10380 10375 10371 10368 10365 10362 10358
10554 10554 10554 10554 10554 10554 10553 10552 10551 10549 10548 10548 10546 10543 10542 10541 10540 10539 10538 10537 10536 10535 10533 10531 10530 10528 10526 10524 10522 10519 10517 10515 10514 10511 10508 10505 10502 10502 10501 10497 10493 10490 10489 10488 10486 10483 10480 10477 10474 10471 10469 10467 10464 10462 10461 10458 10455 10452 10450 10446 10443 10440 10437 10434 10430 10425 10421 10417 10413 10410 10407 10403 10399 10394 10390 10386 10382 10378 10374 10370 10366 10363 10359 10356 10352
10548 10547 10547 10547 10547 10547 10546 10545 10544 10543 10541 10540 10539 10537 10535 10533 10532 10532 10532 10529 10527 10526 10525 10523 10522 10520 10518 10516 10514 10512 10509 10507 10505 10503 10500 10498 10495 10494 10493 10490 10485 10482 10480 10480 10478 10475 10473 10470 10466 10463 10460 10458 10455 10454 10452 10450 10447 10444 10442 10439 10436 10433 10430 10426 10423 10419 10414 10409 10405 10402 10399 10395 10391 10387 10383 10379 10375 10372 10368 10364 10360 10357 10353 10349 10346
10541 10540 10540 10541 10540 10539 10538 10538 10537 10536 10534 10532 10531 10531 10529 10526 10525 10525 10525 10522 10518 10518 10517 10515 10513 10512 10510 10508 10506 10503 10501 10498 10496 10494 10492 10490 10488 10486 10484 10482 10478 10475 10472 10471 10469 10467 10465 10462 10459 10455 10452 10450 10447 10445 10443 10441 10439 10436 10432 10429 10427 10424 10421 10418 10415 10411 10407 10403 10399 10395 10391 10388 10384 10380 10376 10372 10369 10365 10362 10358 10354 10349 10345 10341 10337
10535 10533 10533 10534 10533 10532 10531 10530 10530 10529 10526 10524 10524 10524 10522 10519 10518 10518 10516 10513 10511 10511 10510 10506 10504 10502 10501 10499 10497 10494 10492 10490 10487 10484 10484 10482 10480 10478 10476 10473 10471 10468 10464 10462 10460 10458 10456 10453 10450 10447 10445 10442 10440 10437 10435 10432 10430 10427 10424 10420 10417 10415 10411 10408 10405 10402 10398 10395 10392 10388 10383 10379 10375 10372 10369 10366 10362 10358 10354 10351 10347 10342 10338 10333 10329
10528 10525 10526 10527 10527 10525 10524 10523 10523 10522 10519 10517 10516 10516 10514 10511 10511 10509 10506 10504 10503 10504 10503 10499 10495 10493 10492 10491 10488 10485 10483 10481 10478 10476 10474 10473 10471 10469 10467 10465 10463 10461 10458 10455 10452 10450 10447 10445 10442 10439 10436 10434 10431 10429 10427 10424 10422 10419 10415 10412 10409 10405 10402 10398 10396 10393 10389 10386 10383 10379 10374 10370 10367 10364 10362 10358 10355 10350 10346 10342 10338 10334 10329 10324 10321
10521 10518 10517 10519 10519 10518 10517 10516 10515 10515 10513 10511 10509 10507 10505 10504 10503 10501 10498 10495 10494 10494 10494 10491 10487 10484 10483 10482 10479 10476 10474 10472 10470 10468 10466 10464 10462 10460 10459 10457 10455 10453 10451 10448 10445 10443 10440 10437 10434 10431 10427 10425 10423 10420 10418 10416 10413 10410 10407 10404 10400 10396 10393 10389 10386 10383 10380 10376 10373 10369 10366 10362 10359 10356 10353 10349 10346 10342 10337 10332 10328 10324 10320 10315 10312
10514 10511 10509 10510 10511 10510 10509 10508 10507 10507 10507 10504 10499 10496 10497 10497 10496 10494 10492 10488 10485 10484 10484 10482 10477 10474 10474 10472 10470 10467 10465 10464 10462 10460 10458 10456 10454 10452 10451 10449 10447 10445 10443 10440 10438 10435 10433 10430 10427 10424 10420 10417 10415 10412 10409 10407 10404 10401 10398 10395 10392 10389 10385 10381 10377 10374 10370 10367 10363 10361 10357 10354 10350 10347 10343 10339 10336 10332 10327 10322 10318 10314 10311 10307 10304
10506 10503 10501 10502 10503 10502 10500 10499 10498 10499 10500 10495 10488 10486 10488 10489 10487 10486 10485 10482 10478 10476 10475 10472 10468 10465 10465 10463 10460 10458 10458 10456 10454 10451 10449 10447 10446 10444 10442 10440 10438 10436 10434 10431 10429 10427 10424 10422 10419 10417 10414 10411 10408 10405 10402 10399 10396 10393 10390 10387 10384 10380 10376 10372 10369 10366 10363 10359 10355 10351 10348 10344 10340 10337 10332 10328 10325 10321 10317 10312 10308 10304 10301 10298 10295
10497 10494 10493 10494 10495 10493 10491 10489 10488 10489 10490 10487 10483 10481 10479 10477 10477 10477 10476 10474 10470 10468 10467 10464 10460 10457 10455 10453 10451 10450 10449 10448 10445 10443 10441 10439 10437 10435 10434 10431 10429 10427 10425 10423 10420 10418 10416 10413 10411 10408 10405 10403 10400 10397 10394 10391 10388 10385 10381 10378 10374 10371 10367 10364 10361 10358 10355 10351 10347 10342 10338 10334 10331 10327 10322 10318 10314 10310 10306 10302 10299 10296 10292 10287 10284
10487 10486 10485 10486 10485 10483 10481 10479 10479 10479 10479 10478 10477 10475 10471 10468 10468 10468 10466 10463 10461 10458 10457 10456 10453 10449 10446 10444 10443 10441 10440 10438 10435 10433 10431 10429 10428 10426 10424 10422 10420 10418 10415 10413 10411 10409 10407 10404 10401 10399 10396 10393 10391 10388 10385 10381 10378 10375 10372 10368 10364 10361 10358 10355 10352 10348 10344 10340 10337 10333 10329 10325 10321 10317 10312 10308 10304 10300 10296 10293 10290 10285 10281 10277 10273
10478 10478 10477 10476 10475 10473 10471 10470 10469 10469 10468 10467 10467 10465 10462 10460 10459 10458 10455 10453 10451 10448 10447 10446 10444 10440 10437 10436 10436 10434 10431 10429 10426 10424 10422 10420 10418 10417 10415 10413 10410 10408 10406 10403 10401 10399 10397 10394 10392 10389 10386 10383 10381 10378 10375 10371 10368 10365 10361 10357 10354 10352 10349 10345 10341 10337 10333 10329 10326 10323 10319 10315 10311 10307 10302 10298 10294 10291 10287 10283 10279 10274 10270 10267 10263
10468 10468 10468 10466 10465 10464 10462 10460 10459 10458 10457 10457 10456 10454 10452 10450 10450 10448 10445 10442 10440 10439 10438 10436 10434 10430 10428 10428 10427 10426 10423 10420 10417 10415 10412 10410 10409 10408 10406 10403 10400 10398 10396 10393 10391 10389 10386 10384 10381 10378 10376 10373 10370 10367 10365 10362 10358 10354 10350 10346 10344 10342 10339 10335 10331 10327 10323 10319 10315 10312 10308 10304 10300 10297 10293 10289 10285 10281 10277 10272 10268 10264 10260 10256 10252
10459 10458 10458 10456 10455 10454 10453 10450 10449 10448 10447 10446 10445 10442 10440 10439 10439 10437 10434 10431 10429 10429 10428 10427 10423 10421 10419 10418 10417 10416 10414 10411 10408 10405 10403 10400 10399 10398 10395 10393 10390 10388 10386 10383 10381 10379 10376 10373 10370 10368 10365 10363 10360 10357 10355 10351 10347 10343 10340 10337 10334 10331 10328 10324 10321 10317 10313 10309 10305 10301 10297 10293 10289 10286 10283 10278 10274 10270 10266 10262 10258 10254 10250 10246 10242
10450 10449 10448 10446 10445 10444 10443 10441 10439 10438 10437 10436 10434 10431 10429 10429 10428 10425 10422 10420 10419 10418 10418 10416 10414 10411 10409 10408 10407 10406 10404 10401 10398 10395 10393 10391 10389 10387 10385 10383 10380 10378 10376 10374 10371 10369 10366 10363 10360 10358 10355 10352 10350 10347 10345 10341 10336 10333 10330 10327 10324 10320 10317 10313 10310 10306 10303 10299 10295 10291 10287 10283 10279 10276 10272 10268 10264 10260 10256 10251 10247 10243 10239 10235 10231
10440 10439 10438 10437 10435 10434 10433 10431 10429 10428 10426 10425 10423 10421 10420 10419 10418 10414 10412 10411 10410 10408 10407 10406 10404 10402 10401 10399 10397 10395 10394 10391 10389 10386 10384 10382 10379 10377 10375 10373 10371 10368 10366 10364 10361 10358 10355 10353 10350 10347 10345 10342 10339 10337 10334 10330 10326 10322 10320 10317 10313 10310 10307 10303 10300 10296 10293 10289 10285 10282 10278 10273 10269 10265 10262 10258 10253 10249 10245 10241 10236 10232 10228 10224 10219
10431 10430 10428 10427 10425 10424 10422 10421 10420 10418 10416 10415 10413 10411 10410 10410 10408 10405 10403 10402 10401 10399 10398 10397 10395 10393 10392 10390 10388 10386 10384 10382 10380 10377 10375 10372 10370 10367 10365 10363 10361 10358 10356 10353 10351 10348 10346 10343 10340 10337 10334 10332 10329 10326 10323 10320 10316 10313 10309 10306 10303 10300 10297 10294 10290 10287 10283 10279 10276 10272 10268 10264 10260 10256 10252 10248 10243 10239 10234 10230 10226 10221 10216 10212 10207
10422 10420 10419 10417 10416 10414 10413 10411 10410 10408 10406 10405 10403 10402 10401 10400 10399 10397 10395 10394 10392 10391 10389 10388 10386 10385 10383 10381 10379 10377 10374 10372 10371 10368 10366 10363 10361 10358 10356 10354 10351 10349 10346 10343 10341 10338 10336 10333 10330 10327 10324 10322 10319 10316 10313 10310 10306 10303 10300 10297 10294 10290 10287 10284 10281 10277 10273 10270 10266 10262 10258 10254 10250 10246 10242 10237 10233 10229 10224 10219 10214 10210 10205 10201 10196
10413 10411 10409 10408 10406 10405 10403 10402 10400 10398 10397 10395 10394 10393 10392 10391 10390 10388 10387 10386 10384 10382 10381 10379 10378 10376 10374 10372 10370 10368 10366 10364 10362 10359 10357 10355 10352 10349 10347 10345 10342 10339 10336 10334 10331 10329 10326 10323 10320 10317 10314 10312 10309 10306 10303 10300 10297 10294 10290 10287 10284 10280 10277 10274 10270 10267 10263 10260 10255 10251 10247 10244 10240 10235 10231 10226 10222 10217 10213 10207 10203 10199 10194 10190 10185
10403 10401 10400 10399 10397 10396 10394 10393 10391 10390 10389 10387 10386 10385 10384 10383 10381 10380 10379 10377 10376 10374 10373 10371 10369 10367 10365 10363 10362 10360 10357 10355 10353 10351 10348 10346 10343 10340 10338 10335 10333 10330 10327 10324 10322 10319 10316 10313 10310 10307 10305 10302 10299 10296 10293 10290 10287 10284 10280 10277 10274 10271 10267 10264 10261 10257 10253 10249 10245 10241 10236 10232 10229 10225 10220 10215 10211 10206 10201 10196 10192 10188 10184 10179 10174